WLTO2: East Cache Creek Nr Walters, O

Data processed at Tue May 21 2019 23:50


All information presented herein is the property of the government of the United States of America and may be revised or deleted at any time without prior notice.
Dissemination of this information without the expressed written consent of the Public Affairs Office, Tulsa District U.S. Army Corps of Engineers is strictly prohibited.
These data are gathered electronically and, as presented, have not undergone any form of quality control. These data are not guaranteed to be valid or correct.
Go to home page.
Go to station list.
Go to home page.

Upstream stations:

Downstream station:
Previous Day
Next Day
Current Day
    
SHEF ID:       WLTO2     East Cache Creek near Walters, O
STATION TYPE:  
Regulating: Stage =    15.00, Flow =     1957

               PRECIP PRECIP(A)     STAGE  RIV-FLOW  BAT-LOAD
                   in        in        ft       cfs      volt
              Ccp-Rev   Ccp-Rev   Ccp-Rev   Ccp-Rev   Ccp-Rev
(US/Central)
05/21 00:00      0.00      ----     12.12      1271     12.41
05/21 01:00      0.00      ----     12.11      1269     12.33
05/21 02:00      0.00      ----     12.10      1266     12.33
05/21 03:00      0.83      ----     12.63      1388     12.33
05/21 04:00      0.25      ----     13.40      1568     12.33
05/21 05:00      0.15      ----     14.80      1908     12.33
05/21 06:00      0.26      ----     16.59      2338     12.25
05/21 07:00      0.00      ----     18.28      2759     12.25
05/21 08:00      0.00      ----     19.71      3127     12.33
05/21 09:00      0.00      ----     20.92      3446     12.57
05/21 10:00      0.00      ----     21.87      3701     12.97
05/21 11:00      0.00      ----     22.57      3892     13.29
05/21 12:00      0.00      ----     23.13      4046     13.76
05/21 13:00      0.00      ----     23.61      4187     13.37
05/21 14:00      0.00      ----     24.04      4315     13.29
05/21 15:00      0.00      ----     24.46      4441     13.29
05/21 16:00      0.00      ----     24.87      4564     13.21
05/21 17:00      0.00      ----     25.29      4698     12.81
05/21 18:00      0.00      ----     25.68      4848     12.65
05/21 19:00      0.00      ----     26.07      5054     12.65
05/21 20:00      0.00      ----     26.42      5358     12.57
05/21 21:00      0.00      ----     26.72      6186     12.49
05/21 22:00      0.00      ----     26.99      7028     12.41
05/21 23:00      0.00      ----     27.22      7827     12.41